Time,TemperatureF,DewpointF,PressureIn,WindDirection,WindDirectionDegrees,WindSpeedMPH,WindSpeedGustMPH,Humidity,HourlyPrecipIn,Conditions,Clouds,dailyrainin,SoftwareType,DateUTC
2013-10-24 07:25:00,33.7,29.7,29.82,NNW,345,0.0,0.0,85,0.00,CLR,,0.14,WeatherDisplay:10.37,2013-10-24 15:25:00,
2013-10-24 07:30:00,34.0,30.0,29.82,NNW,346,0.0,0.0,85,0.00,CLR,,0.14,WeatherDisplay:10.37,2013-10-24 15:30:00,
2013-10-24 07:35:00,34.4,30.1,29.81,NNW,346,0.0,0.0,84,0.00,CLR,,0.14,WeatherDisplay:10.37,2013-10-24 15:35:00,
2013-10-24 07:40:00,34.7,30.1,29.81,NNW,345,0.0,0.0,83,0.00,CLR,,0.14,WeatherDisplay:10.37,2013-10-24 15:40:00,
2013-10-24 07:45:00,35.0,30.7,29.80,NNW,345,0.0,0.0,84,0.00,CLR,,0.14,WeatherDisplay:10.37,2013-10-24 15:45:00,
2013-10-24 07:50:00,35.2,30.6,29.81,NNW,346,0.0,0.0,83,0.00,CLR,,0.14,WeatherDisplay:10.37,2013-10-24 15:50:00,
2013-10-24 07:55:00,35.7,30.4,29.81,NNW,346,0.0,0.0,81,0.00,CLR,,0.14,WeatherDisplay:10.37,2013-10-24 15:55:00,
2013-10-24 08:00:00,36.2,30.9,29.80,NNW,346,0.0,0.0,81,0.00,CLR,,0.14,WeatherDisplay:10.37,2013-10-24 16:00:00,
2013-10-24 08:05:00,36.5,30.6,29.80,NNW,346,0.0,0.0,79,0.00,CLR,,0.14,WeatherDisplay:10.37,2013-10-24 16:05:00,
2013-10-24 08:10:00,36.5,31.2,29.80,NNW,345,0.0,0.0,81,0.00,CLR,,0.14,WeatherDisplay:10.37,2013-10-24 16:10:00,
2013-10-24 08:15:00,36.1,30.8,29.81,NNW,345,0.0,0.0,81,0.00,CLR,,0.14,WeatherDisplay:10.37,2013-10-24 16:15:00,
2013-10-24 08:20:00,35.7,30.7,29.82,NNW,345,0.0,0.0,82,0.00,CLR,,0.14,WeatherDisplay:10.37,2013-10-24 16:20:00,
2013-10-24 08:25:00,35.4,30.8,29.83,NNW,345,0.0,0.0,83,0.00,CLR,,0.14,WeatherDisplay:10.37,2013-10-24 16:25:00,
2013-10-24 08:30:00,35.1,30.8,29.83,NNW,346,0.0,0.0,84,0.00,CLR,,0.14,WeatherDisplay:10.37,2013-10-24 16:30:00,
2013-10-24 08:35:00,34.8,30.5,29.83,NNW,346,0.0,0.0,84,0.00,CLR,,0.14,WeatherDisplay:10.37,2013-10-24 16:35:00,
2013-10-24 08:40:00,34.7,30.4,29.82,NNW,345,0.0,0.0,84,0.00,CLR,,0.14,WeatherDisplay:10.37,2013-10-24 16:40:00,
2013-10-24 08:45:00,34.7,30.7,29.82,NNW,346,0.0,0.0,85,0.00,CLR,,0.14,WeatherDisplay:10.37,2013-10-24 16:45:00,
2013-10-24 08:50:00,34.6,30.6,29.82,NNW,345,0.0,0.0,85,0.00,CLR,,0.14,WeatherDisplay:10.37,2013-10-24 16:50:00,
2013-10-24 08:55:00,34.4,30.6,29.82,NNW,345,0.0,0.0,86,0.00,CLR,,0.14,WeatherDisplay:10.37,2013-10-24 16:55:00,
2013-10-24 09:00:00,34.4,30.6,29.82,NNW,345,0.0,0.0,86,0.00,CLR,,0.14,WeatherDisplay:10.37,2013-10-24 17:00:00,
2013-10-24 09:05:00,34.7,30.9,29.83,NNW,346,0.0,0.0,86,0.00,CLR,,0.14,WeatherDisplay:10.37,2013-10-24 17:05:00,
2013-10-24 09:10:00,35.2,31.1,29.83,NNW,346,0.0,0.0,85,0.00,CLR,,0.14,WeatherDisplay:10.37,2013-10-24 17:10:00,
2013-10-24 09:15:00,35.5,31.7,29.83,NNW,345,0.0,0.0,86,0.00,CLR,,0.14,WeatherDisplay:10.37,2013-10-24 17:15:00,
2013-10-24 09:20:00,35.7,31.9,29.82,NNW,346,0.0,0.0,86,0.00,CLR,,0.14,WeatherDisplay:10.37,2013-10-24 17:20:00,
2013-10-24 09:25:00,35.9,32.4,29.82,NNW,346,0.0,0.0,87,0.00,CLR,,0.14,WeatherDisplay:10.37,2013-10-24 17:25:00,
2013-10-24 09:30:00,35.9,32.7,29.82,NNW,346,0.0,0.0,88,0.00,CLR,,0.14,WeatherDisplay:10.37,2013-10-24 17:30:00,
2013-10-24 09:35:00,36.3,33.4,29.81,NNW,345,0.0,0.0,89,0.00,CLR,,0.14,WeatherDisplay:10.37,2013-10-24 17:35:00,
2013-10-24 09:40:00,37.7,35.0,29.81,NNW,346,0.0,0.0,90,0.00,CLR,,0.14,WeatherDisplay:10.37,2013-10-24 17:40:00,
2013-10-24 09:45:00,38.8,35.6,29.81,NNW,346,0.0,0.0,88,0.01,RA,,0.15,WeatherDisplay:10.37,2013-10-24 17:45:00,
2013-10-24 09:50:00,39.6,36.0,29.80,NNW,345,0.0,0.0,87,0.01,RA,,0.15,WeatherDisplay:10.37,2013-10-24 17:50:00,
2013-10-24 09:55:00,40.0,36.2,29.80,NNW,346,0.0,0.0,86,0.01,,,0.15,WeatherDisplay:10.37,2013-10-24 17:55:00,
2013-10-24 10:00:00,40.0,36.2,29.80,NNW,346,0.0,0.0,86,0.01,CLR,,0.15,WeatherDisplay:10.37,2013-10-24 18:00:00,
2013-10-24 10:05:00,39.9,36.1,29.80,NNW,346,0.0,0.0,86,0.01,CLR,,0.15,WeatherDisplay:10.37,2013-10-24 18:05:00,
2013-10-24 10:10:00,39.5,35.4,29.80,NNW,346,0.0,0.0,85,0.01,CLR,,0.15,WeatherDisplay:10.37,2013-10-24 18:10:00,
2013-10-24 10:15:00,38.9,34.8,29.79,NNW,346,0.0,0.0,85,0.02,RA,,0.16,WeatherDisplay:10.37,2013-10-24 18:15:00,
2013-10-24 10:20:00,38.5,34.7,29.79,NNW,346,0.0,0.0,86,0.02,RA,,0.16,WeatherDisplay:10.37,2013-10-24 18:20:00,
2013-10-24 10:25:00,38.1,34.3,29.79,NNW,345,0.0,0.0,86,0.02,,,0.16,WeatherDisplay:10.37,2013-10-24 18:25:00,
2013-10-24 10:30:00,37.8,34.3,29.79,NNW,345,0.0,0.0,87,0.02,CLR,,0.16,WeatherDisplay:10.37,2013-10-24 18:30:00,
2013-10-24 10:35:00,37.7,34.5,29.79,NNW,346,0.0,0.0,88,0.03,RA,,0.17,WeatherDisplay:10.37,2013-10-24 18:35:00,
2013-10-24 10:40:00,37.5,34.3,29.79,NNW,346,0.0,0.0,88,0.03,RA,,0.17,WeatherDisplay:10.37,2013-10-24 18:40:00,
2013-10-24 10:45:00,37.4,34.5,29.79,NNW,346,0.0,0.0,89,0.02,CLR,,0.17,WeatherDisplay:10.37,2013-10-24 18:45:00,
2013-10-24 10:50:00,37.4,35.0,29.79,NNW,345,0.0,0.0,91,0.02,CLR,,0.18,WeatherDisplay:10.37,2013-10-24 18:50:00,
2013-10-24 10:55:00,37.9,35.5,29.80,NNW,346,0.0,0.0,91,0.03,RA,,0.18,WeatherDisplay:10.37,2013-10-24 18:55:00,
2013-10-24 11:00:00,38.2,35.8,29.80,NNW,346,0.0,0.0,91,0.04,RA,,0.19,WeatherDisplay:10.37,2013-10-24 19:00:00,
2013-10-24 11:05:00,38.3,35.9,29.80,NNW,345,0.0,0.0,91,0.04,RA,,0.19,WeatherDisplay:10.37,2013-10-24 19:05:00,
2013-10-24 11:10:00,38.3,35.9,29.80,NNW,345,0.0,0.0,91,0.05,RA,,0.20,WeatherDisplay:10.37,2013-10-24 19:10:00,
2013-10-24 11:15:00,38.1,36.0,29.80,NNW,346,0.0,0.0,92,0.05,RA,,0.21,WeatherDisplay:10.37,2013-10-24 19:15:00,
2013-10-24 11:20:00,38.0,35.9,29.80,NNW,346,0.0,0.0,92,0.06,RA,,0.22,WeatherDisplay:10.37,2013-10-24 19:20:00,
2013-10-24 11:25:00,38.1,36.0,29.80,NNW,346,0.0,0.0,92,0.07,RA,,0.23,WeatherDisplay:10.37,2013-10-24 19:25:00,
2013-10-24 11:30:00,38.1,36.3,29.80,NNW,345,0.0,0.0,93,0.08,RA,,0.25,WeatherDisplay:10.37,2013-10-24 19:30:00,
2013-10-24 11:35:00,38.0,36.2,29.80,NNW,346,0.0,0.0,93,0.08,RA,,0.25,WeatherDisplay:10.37,2013-10-24 19:35:00,
2013-10-24 11:40:00,37.8,36.0,29.80,NNW,346,0.0,0.0,93,0.10,RA,,0.27,WeatherDisplay:10.37,2013-10-24 19:40:00,
2013-10-24 11:45:00,37.8,36.0,29.80,NNW,346,0.0,0.0,93,0.11,RA,,0.28,WeatherDisplay:10.37,2013-10-24 19:45:00,
2013-10-24 11:50:00,37.8,36.0,29.80,NNW,346,0.0,0.0,93,0.12,RA,,0.29,WeatherDisplay:10.37,2013-10-24 19:50:00,
2013-10-24 11:55:00,37.8,36.0,29.80,NNW,346,0.0,0.0,93,0.12,RA,,0.30,WeatherDisplay:10.37,2013-10-24 19:55:00,
2013-10-24 12:00:00,37.9,36.3,29.79,NNW,346,0.0,0.0,94,0.11,RA,,0.31,WeatherDisplay:10.37,2013-10-24 20:00:00,
2013-10-24 12:05:00,38.0,36.4,29.79,NNW,345,0.0,0.0,94,0.13,RA,,0.32,WeatherDisplay:10.37,2013-10-24 20:05:00,
2013-10-24 12:10:00,38.2,36.6,29.79,NNW,346,0.0,0.0,94,0.14,RA,,0.34,WeatherDisplay:10.37,2013-10-24 20:10:00,
2013-10-24 12:15:00,38.2,36.6,29.79,NNW,346,0.0,0.0,94,0.14,RA,,0.36,WeatherDisplay:10.37,2013-10-24 20:15:00,
2013-10-24 12:20:00,38.3,36.7,29.80,NNW,346,0.0,0.0,94,0.14,RA,,0.37,WeatherDisplay:10.37,2013-10-24 20:20:00,
2013-10-24 12:25:00,38.2,36.6,29.79,NNW,346,0.0,0.0,94,0.15,RA,,0.39,WeatherDisplay:10.37,2013-10-24 20:25:00,
2013-10-24 12:30:00,38.3,36.7,29.79,NNW,346,0.0,0.0,94,0.16,RA,,0.40,WeatherDisplay:10.37,2013-10-24 20:30:00,
2013-10-24 12:35:00,38.6,37.0,29.78,NNW,346,0.0,0.0,94,0.16,RA,,0.41,WeatherDisplay:10.37,2013-10-24 20:35:00,
2013-10-24 12:40:00,38.9,37.6,29.78,NNW,345,0.0,0.0,95,0.15,RA,,0.42,WeatherDisplay:10.37,2013-10-24 20:40:00,
2013-10-24 12:45:00,39.3,37.7,29.77,NNW,345,0.0,0.0,94,0.15,RA,,0.43,WeatherDisplay:10.37,2013-10-24 20:45:00,
2013-10-24 12:50:00,39.4,37.8,29.77,NNW,346,0.0,0.0,94,0.16,RA,,0.45,WeatherDisplay:10.37,2013-10-24 20:50:00,
2013-10-24 12:55:00,39.7,38.1,29.77,NNW,345,0.0,0.0,94,0.16,RA,,0.46,WeatherDisplay:10.37,2013-10-24 20:55:00,
2013-10-24 13:00:00,40.0,38.1,29.77,NNW,345,0.0,0.0,93,0.18,RA,,0.48,WeatherDisplay:10.37,2013-10-24 21:00:00,
2013-10-24 13:05:00,40.2,38.1,29.77,NNW,346,0.0,0.0,92,0.17,RA,,0.49,WeatherDisplay:10.37,2013-10-24 21:05:00,
2013-10-24 13:10:00,40.4,38.3,29.76,NNW,345,0.0,0.0,92,0.16,RA,,0.50,WeatherDisplay:10.37,2013-10-24 21:10:00,
2013-10-24 13:15:00,40.6,38.2,29.76,NNW,345,0.0,0.0,91,0.17,RA,,0.52,WeatherDisplay:10.37,2013-10-24 21:15:00,
2013-10-24 13:20:00,40.6,38.2,29.76,NNW,346,0.0,0.0,91,0.17,RA,,0.54,WeatherDisplay:10.37,2013-10-24 21:20:00,
2013-10-24 13:25:00,40.6,37.9,29.76,NNW,345,0.0,0.0,90,0.17,RA,,0.55,WeatherDisplay:10.37,2013-10-24 21:25:00,
2013-10-24 13:30:00,40.6,37.9,29.76,NNW,346,0.0,0.0,90,0.16,RA,,0.56,WeatherDisplay:10.37,2013-10-24 21:30:00,
2013-10-24 13:35:00,40.6,37.9,29.75,NNW,346,0.0,0.0,90,0.17,RA,,0.58,WeatherDisplay:10.37,2013-10-24 21:35:00,
2013-10-24 13:40:00,40.5,37.8,29.75,NNW,347,0.0,0.0,90,0.17,RA,,0.59,WeatherDisplay:10.37,2013-10-24 21:40:00,
2013-10-24 13:45:00,40.6,37.9,29.75,NNW,347,0.0,0.0,90,0.17,RA,,0.60,WeatherDisplay:10.37,2013-10-24 21:45:00,
2013-10-24 13:50:00,40.6,37.9,29.75,NNW,346,0.0,0.0,90,0.16,RA,,0.62,WeatherDisplay:10.37,2013-10-24 21:50:00,
2013-10-24 13:55:00,40.5,37.8,29.75,NNW,345,0.0,0.0,90,0.17,RA,,0.63,WeatherDisplay:10.37,2013-10-24 21:55:00,
2013-10-24 14:00:00,40.5,37.8,29.75,NNW,346,0.0,0.0,90,0.16,RA,,0.64,WeatherDisplay:10.37,2013-10-24 22:00:00,
2013-10-24 14:05:00,40.4,37.7,29.74,NNW,346,0.0,0.0,90,0.17,RA,,0.66,WeatherDisplay:10.37,2013-10-24 22:05:00,
2013-10-24 14:10:00,40.4,37.7,29.73,NNW,347,0.0,0.0,90,0.17,RA,,0.68,WeatherDisplay:10.37,2013-10-24 22:10:00,
2013-10-24 14:15:00,40.4,37.7,29.72,NNW,347,0.0,0.0,90,0.17,RA,,0.69,WeatherDisplay:10.37,2013-10-24 22:15:00,
2013-10-24 14:20:00,40.3,37.6,29.72,NNW,347,0.0,0.0,90,0.17,RA,,0.70,WeatherDisplay:10.37,2013-10-24 22:20:00,
2013-10-24 14:25:00,40.4,37.7,29.72,NNW,347,0.0,0.0,90,0.17,RA,,0.72,WeatherDisplay:10.37,2013-10-24 22:25:00,
2013-10-24 14:30:00,40.5,37.8,29.72,NNW,347,0.0,0.0,90,0.17,RA,,0.73,WeatherDisplay:10.37,2013-10-24 22:30:00,
2013-10-24 14:35:00,40.5,37.5,29.72,NNW,347,0.0,0.0,89,0.16,RA,,0.74,WeatherDisplay:10.37,2013-10-24 22:35:00,
2013-10-24 14:40:00,40.6,37.6,29.73,NNW,347,0.0,0.0,89,0.17,RA,,0.76,WeatherDisplay:10.37,2013-10-24 22:40:00,
2013-10-24 14:45:00,40.6,37.9,29.74,NNW,347,0.0,0.0,90,0.18,RA,,0.78,WeatherDisplay:10.37,2013-10-24 22:45:00,
2013-10-24 14:50:00,40.5,37.5,29.75,NNW,347,0.0,0.0,89,0.18,RA,,0.80,WeatherDisplay:10.37,2013-10-24 22:50:00,
2013-10-24 14:55:00,40.5,37.8,29.76,NNW,346,0.0,0.0,90,0.19,RA,,0.82,WeatherDisplay:10.37,2013-10-24 22:55:00,
2013-10-24 15:00:00,40.4,37.7,29.76,NNW,346,0.0,0.0,90,0.20,RA,,0.84,WeatherDisplay:10.37,2013-10-24 23:00:00,
2013-10-24 15:05:00,40.2,37.5,29.76,NNW,347,0.0,0.0,90,0.19,RA,,0.86,WeatherDisplay:10.37,2013-10-24 23:05:00,
2013-10-24 15:10:00,40.1,37.4,29.76,NNW,345,0.0,0.0,90,0.19,RA,,0.87,WeatherDisplay:10.37,2013-10-24 23:10:00,
2013-10-24 15:15:00,39.9,37.2,29.75,NNW,346,0.0,0.0,90,0.19,RA,,0.88,WeatherDisplay:10.37,2013-10-24 23:15:00,
2013-10-24 15:20:00,39.9,37.2,29.74,NNW,346,0.0,0.0,90,0.20,RA,,0.90,WeatherDisplay:10.37,2013-10-24 23:20:00,
2013-10-24 15:25:00,39.9,37.5,29.74,NNW,345,0.0,0.0,91,0.19,RA,,0.91,WeatherDisplay:10.37,2013-10-24 23:25:00,
2013-10-24 15:30:00,39.8,37.4,29.74,NNW,345,0.0,0.0,91,0.19,RA,,0.92,WeatherDisplay:10.37,2013-10-24 23:30:00,
2013-10-24 15:35:00,40.0,37.6,29.74,NNW,347,0.0,0.0,91,0.18,RA,,0.93,WeatherDisplay:10.37,2013-10-24 23:35:00,
2013-10-24 15:40:00,40.1,37.7,29.74,NNW,347,0.0,0.0,91,0.18,RA,,0.94,WeatherDisplay:10.37,2013-10-24 23:40:00,
2013-10-24 15:45:00,40.2,37.8,29.73,NNW,347,0.0,0.0,91,0.17,RA,,0.95,WeatherDisplay:10.37,2013-10-24 23:45:00,
2013-10-24 15:50:00,40.3,37.6,29.73,NNW,346,0.0,0.0,90,0.17,RA,,0.96,WeatherDisplay:10.37,2013-10-24 23:50:00,
2013-10-24 15:55:00,40.2,37.5,29.72,NNW,347,0.0,0.0,90,0.15,RA,,0.97,WeatherDisplay:10.37,2013-10-24 23:55:00,
2013-10-24 16:00:00,40.2,37.5,29.72,NNW,347,0.0,0.0,90,0.14,RA,,0.98,WeatherDisplay:10.37,2013-10-25 00:00:00,
2013-10-24 16:05:00,40.2,37.5,29.73,NNW,345,0.0,0.0,90,0.14,RA,,0.99,WeatherDisplay:10.37,2013-10-25 00:05:00,
2013-10-24 16:10:00,40.3,37.6,29.72,NNW,346,0.0,0.0,90,0.14,RA,,1.00,WeatherDisplay:10.37,2013-10-25 00:10:00,
2013-10-24 16:15:00,40.4,37.7,29.72,NNW,347,0.0,0.0,90,0.13,RA,,1.01,WeatherDisplay:10.37,2013-10-25 00:15:00,
2013-10-24 16:20:00,40.5,37.8,29.71,NNW,347,0.0,0.0,90,0.12,RA,,1.02,WeatherDisplay:10.37,2013-10-25 00:20:00,
2013-10-24 16:25:00,40.6,37.9,29.71,NNW,347,0.0,0.0,90,0.12,RA,,1.03,WeatherDisplay:10.37,2013-10-25 00:25:00,
2013-10-24 16:30:00,40.6,37.9,29.72,NNW,347,0.0,0.0,90,0.12,RA,,1.04,WeatherDisplay:10.37,2013-10-25 00:30:00,
2013-10-24 16:35:00,40.6,38.2,29.72,NNW,347,0.0,0.0,91,0.13,RA,,1.05,WeatherDisplay:10.37,2013-10-25 00:35:00,
2013-10-24 16:40:00,40.6,37.9,29.72,NNW,347,0.0,0.0,90,0.12,RA,,1.06,WeatherDisplay:10.37,2013-10-25 00:40:00,
2013-10-24 16:45:00,40.7,38.0,29.73,NNW,347,0.0,0.0,90,0.12,RA,,1.07,WeatherDisplay:10.37,2013-10-25 00:45:00,
2013-10-24 16:50:00,40.7,38.3,29.73,NNW,347,0.0,0.0,91,0.12,RA,,1.08,WeatherDisplay:10.37,2013-10-25 00:50:00,
2013-10-24 16:55:00,40.7,38.0,29.72,NNW,347,0.0,0.0,90,0.11,RA,,1.08,WeatherDisplay:10.37,2013-10-25 00:55:00,
2013-10-24 17:00:00,40.6,37.9,29.72,NNW,347,0.0,0.0,90,0.11,RA,,1.09,WeatherDisplay:10.37,2013-10-25 01:00:00,
2013-10-24 17:05:00,40.7,38.0,29.73,NNW,347,0.0,0.0,90,0.11,RA,,1.10,WeatherDisplay:10.37,2013-10-25 01:05:00,
2013-10-24 17:10:00,40.7,38.0,29.73,NNW,347,0.0,0.0,90,0.11,RA,,1.12,WeatherDisplay:10.37,2013-10-25 01:10:00,
2013-10-24 17:15:00,40.6,37.9,29.73,NNW,347,0.0,0.0,90,0.11,RA,,1.13,WeatherDisplay:10.37,2013-10-25 01:15:00,
2013-10-24 17:20:00,40.4,38.0,29.72,NNW,347,0.0,0.0,91,0.12,RA,,1.14,WeatherDisplay:10.37,2013-10-25 01:20:00,
2013-10-24 17:25:00,40.2,37.8,29.72,NNW,347,0.0,0.0,91,0.12,RA,,1.15,WeatherDisplay:10.37,2013-10-25 01:25:00,
2013-10-24 17:30:00,40.2,37.8,29.72,NNW,347,0.0,0.0,91,0.12,RA,,1.16,WeatherDisplay:10.37,2013-10-25 01:30:00,
2013-10-24 17:35:00,40.1,37.7,29.73,NNW,347,0.0,0.0,91,0.12,RA,,1.18,WeatherDisplay:10.37,2013-10-25 01:35:00,
2013-10-24 17:40:00,40.1,37.7,29.73,NNW,347,0.0,0.0,91,0.12,RA,,1.19,WeatherDisplay:10.37,2013-10-25 01:40:00,
2013-10-24 17:45:00,40.0,37.6,29.73,NNW,347,0.0,0.0,91,0.13,RA,,1.20,WeatherDisplay:10.37,2013-10-25 01:45:00,
2013-10-24 17:50:00,40.0,37.6,29.73,NNW,347,0.0,0.0,91,0.13,RA,,1.21,WeatherDisplay:10.37,2013-10-25 01:50:00,
2013-10-24 17:55:00,39.9,37.8,29.73,NNW,347,0.0,0.0,92,0.15,RA,,1.23,WeatherDisplay:10.37,2013-10-25 01:55:00,
2013-10-24 18:00:00,39.9,37.8,29.73,NNW,347,0.0,0.0,92,0.15,RA,,1.25,WeatherDisplay:10.37,2013-10-25 02:00:00,
2013-10-24 18:05:00,39.9,37.8,29.73,NNW,347,0.0,0.0,92,0.16,RA,,1.27,WeatherDisplay:10.37,2013-10-25 02:05:00,
2013-10-24 18:10:00,39.6,37.5,29.72,NNW,347,0.0,0.0,92,0.17,RA,,1.28,WeatherDisplay:10.37,2013-10-25 02:10:00,
2013-10-24 18:15:00,39.0,36.6,29.72,NNW,347,0.0,0.0,91,0.17,RA,,1.29,WeatherDisplay:10.37,2013-10-25 02:15:00,
2013-10-24 18:20:00,38.7,36.6,29.73,NNW,347,0.0,0.0,92,0.15,RA,,1.29,WeatherDisplay:10.37,2013-10-25 02:20:00,
2013-10-24 18:25:00,38.5,36.4,29.73,NNW,347,0.0,0.0,92,0.15,RA,,1.30,WeatherDisplay:10.37,2013-10-25 02:25:00,
2013-10-24 18:30:00,38.3,36.2,29.73,NNW,347,0.0,0.0,92,0.15,RA,,1.31,WeatherDisplay:10.37,2013-10-25 02:30:00,
2013-10-24 18:35:00,38.2,36.1,29.73,NNW,347,0.0,0.0,92,0.15,RA,,1.32,WeatherDisplay:10.37,2013-10-25 02:35:00,
2013-10-24 18:40:00,38.0,36.2,29.73,NNW,347,0.0,0.0,93,0.15,RA,,1.33,WeatherDisplay:10.37,2013-10-25 02:40:00,
2013-10-24 18:45:00,37.8,36.0,29.73,NNW,347,0.0,0.0,93,0.14,RA,,1.34,WeatherDisplay:10.37,2013-10-25 02:45:00,
2013-10-24 18:50:00,37.5,35.7,29.73,NNW,347,0.0,0.0,93,0.14,RA,,1.36,WeatherDisplay:10.37,2013-10-25 02:50:00,
2013-10-24 18:55:00,37.3,35.5,29.73,NNW,347,0.0,0.0,93,0.14,RA,,1.37,WeatherDisplay:10.37,2013-10-25 02:55:00,
2013-10-24 19:00:00,37.2,35.4,29.73,NNW,347,0.0,0.0,93,0.14,RA,,1.39,WeatherDisplay:10.37,2013-10-25 03:00:00,
2013-10-24 19:05:00,37.1,35.3,29.73,NNW,347,0.0,0.0,93,0.14,RA,,1.40,WeatherDisplay:10.37,2013-10-25 03:05:00,
2013-10-24 19:10:00,37.0,35.2,29.73,NNW,347,0.0,0.0,93,0.13,RA,,1.42,WeatherDisplay:10.37,2013-10-25 03:10:00,
2013-10-24 19:15:00,36.9,35.1,29.73,NNW,347,0.0,0.0,93,0.14,RA,,1.43,WeatherDisplay:10.37,2013-10-25 03:15:00,
2013-10-24 19:20:00,36.9,35.1,29.73,NNW,347,0.0,0.0,93,0.15,RA,,1.45,WeatherDisplay:10.37,2013-10-25 03:20:00,
2013-10-24 19:25:00,36.8,35.2,29.73,NNW,347,0.0,0.0,94,0.16,RA,,1.46,WeatherDisplay:10.37,2013-10-25 03:25:00,
2013-10-24 19:30:00,36.8,35.2,29.73,NNW,347,0.0,0.0,94,0.17,RA,,1.48,WeatherDisplay:10.37,2013-10-25 03:30:00,
2013-10-24 19:35:00,36.8,35.2,29.72,NNW,347,0.0,0.0,94,0.17,RA,,1.49,WeatherDisplay:10.37,2013-10-25 03:35:00,
2013-10-24 19:40:00,36.6,35.0,29.72,NNW,347,0.0,0.0,94,0.18,RA,,1.52,WeatherDisplay:10.37,2013-10-25 03:40:00,
2013-10-24 19:45:00,36.6,34.8,29.73,NNW,347,0.0,0.0,93,0.20,RA,,1.54,WeatherDisplay:10.37,2013-10-25 03:45:00,
2013-10-24 19:50:00,36.5,34.9,29.72,NNW,347,0.0,0.0,94,0.20,RA,,1.55,WeatherDisplay:10.37,2013-10-25 03:50:00,
2013-10-24 19:55:00,36.5,34.9,29.72,NNW,347,0.0,0.0,94,0.19,RA,,1.56,WeatherDisplay:10.37,2013-10-25 03:55:00,
2013-10-24 20:00:00,36.4,34.8,29.73,NNW,347,0.0,0.0,94,0.19,RA,,1.57,WeatherDisplay:10.37,2013-10-25 04:00:00,
2013-10-24 20:01:00,36.4,34.8,29.73,NNW,347,0.0,0.0,94,0.19,RA,,1.57,WeatherDisplay:10.37,2013-10-25 04:01:00,
2013-10-24 20:40:00,36.7,35.4,29.72,NNW,347,0.0,0.0,95,0.18,RA,,1.57,WeatherDisplay:10.37,2013-10-25 04:40:00,
2013-10-24 20:45:00,36.8,35.5,29.72,NNW,347,0.0,0.0,95,0.18,RA,,1.59,WeatherDisplay:10.37,2013-10-25 04:45:00,
2013-10-24 20:50:00,37.0,35.7,29.71,NNW,347,0.0,0.0,95,0.18,RA,,1.61,WeatherDisplay:10.37,2013-10-25 04:50:00,
2013-10-24 20:55:00,37.3,36.0,29.71,NNW,347,0.0,0.0,95,0.18,RA,,1.62,WeatherDisplay:10.37,2013-10-25 04:55:00,
2013-10-24 21:00:00,37.5,36.2,29.71,NNW,347,0.0,0.0,95,0.17,RA,,1.63,WeatherDisplay:10.37,2013-10-25 05:00:00,
2013-10-24 21:05:00,37.8,36.5,29.71,NNW,347,0.0,0.0,95,0.17,RA,,1.65,WeatherDisplay:10.37,2013-10-25 05:05:00,
2013-10-24 21:10:00,38.1,36.5,29.71,NNW,347,0.0,0.0,94,0.18,RA,,1.67,WeatherDisplay:10.37,2013-10-25 05:10:00,
2013-10-24 21:15:00,38.4,36.6,29.71,NNW,347,0.0,0.0,93,0.18,RA,,1.69,WeatherDisplay:10.37,2013-10-25 05:15:00,
2013-10-24 21:20:00,38.3,36.5,29.71,NNW,347,0.0,0.0,93,0.16,RA,,1.71,WeatherDisplay:10.37,2013-10-25 05:20:00,
2013-10-24 21:25:00,38.4,36.6,29.71,NNW,347,0.0,0.0,93,0.17,RA,,1.73,WeatherDisplay:10.37,2013-10-25 05:25:00,
2013-10-24 21:30:00,38.3,36.5,29.72,NNW,347,0.0,0.0,93,0.17,RA,,1.74,WeatherDisplay:10.37,2013-10-25 05:30:00,
2013-10-24 21:35:00,38.2,36.4,29.72,NNW,347,0.0,0.0,93,0.18,RA,,1.75,WeatherDisplay:10.37,2013-10-25 05:35:00,
2013-10-24 21:40:00,38.3,36.5,29.72,NNW,347,0.0,0.0,93,0.19,RA,,1.77,WeatherDisplay:10.37,2013-10-25 05:40:00,
2013-10-24 21:45:00,38.3,36.5,29.71,NNW,347,0.0,0.0,93,0.19,RA,,1.79,WeatherDisplay:10.37,2013-10-25 05:45:00,
2013-10-24 21:50:00,38.3,36.7,29.72,NNW,347,0.0,0.0,94,0.19,RA,,1.81,WeatherDisplay:10.37,2013-10-25 05:50:00,
2013-10-24 21:55:00,38.4,36.8,29.72,NNW,347,0.0,0.0,94,0.20,RA,,1.82,WeatherDisplay:10.37,2013-10-25 05:55:00,
2013-10-24 22:00:00,38.5,36.9,29.71,NNW,347,0.0,0.0,94,0.20,RA,,1.83,WeatherDisplay:10.37,2013-10-25 06:00:00,
2013-10-24 22:05:00,38.7,36.9,29.71,NNW,347,0.0,0.0,93,0.20,RA,,1.85,WeatherDisplay:10.37,2013-10-25 06:05:00,
2013-10-24 22:10:00,39.0,37.1,29.71,NNW,347,0.0,0.0,93,0.20,RA,,1.87,WeatherDisplay:10.37,2013-10-25 06:10:00,
2013-10-24 22:15:00,38.9,37.0,29.71,NNW,347,0.0,0.0,93,0.20,RA,,1.89,WeatherDisplay:10.37,2013-10-25 06:15:00,
2013-10-24 22:20:00,38.9,37.0,29.71,NNW,347,0.0,0.0,93,0.20,RA,,1.90,WeatherDisplay:10.37,2013-10-25 06:20:00,
2013-10-24 22:25:00,39.1,37.0,29.71,NNW,347,0.0,0.0,92,0.19,RA,,1.91,WeatherDisplay:10.37,2013-10-25 06:25:00,
2013-10-24 22:30:00,39.5,37.1,29.71,NNW,347,0.0,0.0,91,0.20,RA,,1.93,WeatherDisplay:10.37,2013-10-25 06:30:00,
2013-10-24 22:35:00,39.4,37.0,29.71,NNW,347,0.0,0.0,91,0.19,RA,,1.94,WeatherDisplay:10.37,2013-10-25 06:35:00,
2013-10-24 22:40:00,39.5,37.1,29.71,NNW,347,0.0,0.0,91,0.18,RA,,1.95,WeatherDisplay:10.37,2013-10-25 06:40:00,
2013-10-24 22:45:00,39.4,37.3,29.71,NNW,347,0.0,0.0,92,0.18,RA,,1.96,WeatherDisplay:10.37,2013-10-25 06:45:00,
2013-10-24 22:50:00,39.5,37.1,29.72,NNW,347,0.0,0.0,91,0.16,RA,,1.97,WeatherDisplay:10.37,2013-10-25 06:50:00,
2013-10-24 22:55:00,39.5,37.4,29.72,NNW,347,0.0,0.0,92,0.15,RA,,1.97,WeatherDisplay:10.37,2013-10-25 06:55:00,
2013-10-24 23:00:00,39.5,37.1,29.72,NNW,347,0.0,0.0,91,0.15,RA,,1.98,WeatherDisplay:10.37,2013-10-25 07:00:00,
2013-10-24 23:05:00,39.5,37.1,29.71,NNW,347,0.0,0.0,91,0.13,RA,,1.98,WeatherDisplay:10.37,2013-10-25 07:05:00,
2013-10-24 23:10:00,39.5,37.1,29.72,NNW,347,0.0,0.0,91,0.12,RA,,1.99,WeatherDisplay:10.37,2013-10-25 07:10:00,
2013-10-24 23:15:00,39.5,37.4,29.72,NNW,347,0.0,0.0,92,0.10,RA,,1.99,WeatherDisplay:10.37,2013-10-25 07:15:00,
2013-10-24 23:20:00,39.5,37.1,29.71,NNW,347,0.0,0.0,91,0.10,RA,,2.00,WeatherDisplay:10.37,2013-10-25 07:20:00,
2013-10-24 23:25:00,39.5,37.4,29.72,NNW,347,0.0,0.0,92,0.09,RA,,2.00,WeatherDisplay:10.37,2013-10-25 07:25:00,
2013-10-24 23:30:00,39.6,37.2,29.71,NNW,347,0.0,0.0,91,0.07,,,2.00,WeatherDisplay:10.37,2013-10-25 07:30:00,
2013-10-24 23:35:00,39.6,37.2,29.72,NNW,347,0.0,0.0,91,0.06,CLR,,2.00,WeatherDisplay:10.37,2013-10-25 07:35:00,
2013-10-24 23:40:00,39.6,37.2,29.72,NNW,347,0.0,0.0,91,0.06,RA,,2.01,WeatherDisplay:10.37,2013-10-25 07:40:00,
2013-10-24 23:45:00,39.6,37.5,29.72,NNW,347,0.0,0.0,92,0.05,RA,,2.01,WeatherDisplay:10.37,2013-10-25 07:45:00,
2013-10-24 23:50:00,39.6,37.5,29.72,NNW,347,0.0,0.0,92,0.05,,,2.01,WeatherDisplay:10.37,2013-10-25 07:50:00,
2013-10-24 23:55:00,39.7,37.3,29.73,NNW,347,0.0,0.0,91,0.04,CLR,,2.01,WeatherDisplay:10.37,2013-10-25 07:55:00,